Location: Newark
(45.0833°N, 9.3000°E)
Time: 07:17:28
(UTC+00:00)

N. Korean satellite - Visible Passes

Search period start: 22 November 2019 00:00
Search period end: 02 December 2019 00:00
Orbit: 456 x 506 km, 97.2° (Epoch: 21 November)

Date Brightness Start Highest point End Pass type
(mag) Time Alt. Az. Time Alt. Az. Time Alt. Az.
22 Nov 8.2 04:52:56 10° NNE 04:56:25 38° E 04:59:49 10° SSE visible
22 Nov 8.9 17:03:29 10° SSW 17:06:43 29° W 17:10:00 10° NNW visible
23 Nov 9.5 04:28:08 10° NE 04:30:52 19° E 04:33:33 10° SE visible
23 Nov 7.3 16:37:36 10° S 16:41:14 60° W 16:44:55 10° NNW visible
24 Nov 6.6 05:35:22 10° N 05:39:01 60° WNW 05:42:35 10° SSW visible
24 Nov 6.6 16:12:13 10° SSE 16:15:51 64° ENE 16:19:32 10° N visible
25 Nov 7.1 05:09:58 10° NNE 05:13:38 63° E 05:17:12 10° S visible
25 Nov 9.7 17:21:21 10° SW 17:24:01 19° W 17:26:42 10° NW visible
26 Nov 8.6 04:44:52 10° NNE 04:48:08 30° E 04:51:22 10° SSE visible
26 Nov 8.4 16:55:02 10° SSW 16:58:27 36° W 17:01:56 10° NNW visible
27 Nov 9.8 04:20:17 10° NE 04:22:34 16° E 04:24:48 10° SE visible
27 Nov 7.1 05:52:43 10° N 05:56:07 36° WNW 05:59:27 10° SW visible
27 Nov 6.9 16:29:19 10° S 16:32:59 77° WSW 16:36:44 10° NNW visible
28 Nov 6.5 05:27:07 10° N 05:30:47 77° WNW 05:34:22 10° SSW visible
28 Nov 10.1 17:39:48 10° WSW 17:41:19 12° W 17:42:50 10° WNW visible
29 Nov 7.6 05:01:47 10° NNE 05:05:21 49° E 05:08:50 10° S visible
29 Nov 9.3 17:12:42 10° SSW 17:15:42 23° W 17:18:44 10° NW visible
30 Nov 9.0 04:36:48 10° NE 04:39:49 24° E 04:42:47 10° SSE visible
30 Nov 7.9 16:46:36 10° S 16:50:10 45° W 16:53:46 10° NNW visible
01 Dec 10.0 04:12:35 10° ENE 04:14:11 12° E 04:15:47 10° ESE visible
01 Dec 6.8 05:44:22 10° N 05:47:52 45° WNW 05:51:16 10° SW visible
01 Dec 6.6 16:21:01 10° SSE 16:24:43 85° ENE 16:28:28 10° N visible
